DW7554 Weather Reports


Display with metric or nautical units.
time (UTC)temp
F
wind
direction
speed
MPH
gust
MPH
rain 1hr
in
rain 24hr
in
rain mn
in
humidity
%
barometer
mb
20260906071554 62 89 1.0 4.0 0.00 0.06 0.00 72 1019.9
20260906070051 61 68 1.0 4.0 0.00 0.06 0.00 71 1019.7
20260906064547 59 108 0.0 4.0 0.00 0.06 0.00 77 1019.6
20260906063043 58 84 1.0 4.0 0.00 0.06 0.00 78 1019.8
20260906061542 56 77 2.0 4.0 0.00 0.06 0.00 80 1019.8
20260906060037 55 94 0.0 3.0 0.00 0.06 0.00 83 1019.7
20260906054541 54 84 1.0 3.0 0.00 0.06 0.00 85 1019.6
20260906053039 53 102 1.0 0.0 0.00 0.06 0.00 87 1019.6
20260906051541 0 0.0 0.0 0.00 0.06 0.00 1019.7
20260906050026 0 0.0 0.0 0.00 0.06 0.00 1019.7
20260906044522 0 0.0 0.0 0.00 0.06 0.00 1019.6
20260906043017 0 0.0 0.0 0.00 0.06 0.00 1019.5
20260906041513 0 0.0 0.0 0.00 0.06 0.00 1019.4
20260906040018 0 0.0 0.0 0.00 0.06 0.00 1019.3
20260906034507 0 0.0 0.0 0.00 0.06 0.00 1019.2
20260906033100 0 0.0 0.0 0.00 0.06 0.00 1019.1
20260906031557 51 96 1.0 6.0 0.00 0.06 0.00 90 1019.1
20260906024559 51 63 1.0 6.0 0.00 0.06 0.00 92 1019.1
20260906023053 51 65 1.0 6.0 0.00 0.06 0.00 93 1018.9
20260906021551 52 96 1.0 6.0 0.00 0.06 0.00 91 1018.8
20260906020049 51 70 2.0 6.0 0.00 0.06 0.00 91 1018.6
20260906014622 52 78 1.0 6.0 0.00 0.06 0.00 90 1018.5
20260906013049 52 54 2.0 6.0 0.00 0.06 0.00 91 1018.7
20260906011546 53 115 1.0 6.0 0.00 0.06 0.00 90 1018.5
20260906010049 53 77 1.0 6.0 0.00 0.06 0.00 91 1018.4
20260906004541 53 77 1.0 6.0 0.00 0.06 0.00 91 1018.2
20260906003041 53 82 0.0 6.0 0.00 0.06 0.00 91 1018.3
20260906001541 53 73 1.0 6.0 0.00 0.06 0.00 92 1018.3
20260906000041 53 79 0.0 6.0 0.00 0.06 0.00 92 1018.1
20260905234537 53 71 1.0 6.0 0.00 0.06 0.00 91 1017.9
20260905233034 54 96 1.0 6.0 0.00 0.06 0.00 92 1017.8
20260905231532 54 69 1.0 6.0 0.00 0.06 0.00 92 1017.7
20260905230029 55 70 2.0 6.0 0.00 0.06 0.00 91 1017.9
20260905224527 56 60 1.0 6.0 0.00 0.06 0.00 91 1017.7
20260905223026 56 98 0.0 6.0 0.00 0.06 0.00 90 1017.7
20260905221522 56 51 1.0 6.0 0.00 0.06 0.00 91 1017.6
20260905220020 55 79 1.0 6.0 0.00 0.06 0.06 91 1017.5
20260905214522 56 65 1.0 6.0 0.00 0.06 0.06 91 1017.3
20260905213015 56 75 2.0 6.0 0.00 0.06 0.06 90 1017.1
20260905211516 57 84 1.0 6.0 0.00 0.06 0.06 89 1017.0
20260905210016 56 49 0.0 6.0 0.00 0.06 0.06 92 1016.9
20260905204518 57 65 2.0 6.0 0.00 0.06 0.06 91 1016.9
20260905203009 58 65 1.0 6.0 0.00 0.06 0.06 89 1016.7
20260905201508 57 40 3.0 6.0 0.00 0.06 0.06 91 1016.6
20260905200007 58 60 2.0 6.0 0.00 0.06 0.06 90 1016.5
20260905194505 58 46 1.0 6.0 0.00 0.06 0.06 91 1016.3
20260905193002 59 66 2.0 6.0 0.00 0.06 0.06 90 1016.2
20260905191602 59 95 4.0 6.0 0.00 0.06 0.06 91 1015.9
20260905190100 59 73 1.0 5.0 0.00 0.06 0.06 90 1015.6
20260905184555 60 31 1.0 5.0 0.00 0.06 0.06 89 1015.3
20260905183051 61 70 1.0 4.0 0.00 0.06 0.06 88 1015.2
20260905181605 62 53 2.0 4.0 0.00 0.06 0.06 88 1014.9
20260905180045 63 84 3.0 8.0 0.00 0.06 0.06 87 1014.6
20260905174541 65 78 1.0 8.0 0.00 0.06 0.06 85 1014.2
20260905173038 65 75 3.0 8.0 0.00 0.06 0.06 84 1013.8
20260905171536 66 86 3.0 8.0 0.00 0.06 0.06 81 1013.7
20260905170034 67 141 2.0 8.0 0.00 0.06 0.06 81 1013.5
20260905164631 67 94 5.0 11.0 0.00 0.06 0.06 81 1013.2
20260905163032 67 71 3.0 11.0 0.00 0.06 0.06 80 1013.0
20260905161528 67 79 7.0 11.0 0.00 0.06 0.06 81 1013.0
20260905160026 67 67 5.0 11.0 0.00 0.06 0.06 83 1012.8
20260905154521 67 12 6.0 10.0 0.00 0.06 0.06 84 1012.7
20260905153019 67 84 4.0 8.0 0.00 0.06 0.06 83 1012.5
20260905151520 67 73 7.0 12.0 0.00 0.06 0.06 80 1012.5
20260905150015 68 96 6.0 16.0 0.00 0.06 0.06 79 1012.2
20260905144513 68 88 5.0 16.0 0.00 0.06 0.06 77 1012.0
20260905143020 69 60 8.0 16.0 0.01 0.06 0.06 75 1011.8
20260905141508 68 75 7.0 16.0 0.01 0.06 0.06 78 1012.1
20260905140007 67 94 9.0 14.0 0.01 0.06 0.06 82 1012.0
20260905134506 67 91 10.0 16.0 0.02 0.06 0.06 81 1012.1
20260905133004 68 82 8.0 13.0 0.06 0.06 0.06 82 1012.0
20260905131502 67 123 5.0 9.0 0.06 0.06 0.06 84 1012.1
20260905130001 66 61 4.0 6.0 0.06 0.06 0.06 85 1012.1
20260905124603 70 134 2.0 0.0 0.05 0.05 0.05 66 1012.3
20260905123057 71 78 6.0 0.0 0.00 0.00 0.00 63 1011.8
20260905121553 71 104 4.0 0.0 0.00 0.00 0.00 64 1011.8
20260905120053 71 80 5.0 0.0 0.00 0.00 0.00 62 1011.8
20260905114552 71 71 6.0 0.0 0.00 0.00 0.00 64 1011.7
20260905113049 70 75 5.0 0.0 0.00 0.00 0.00 64 1011.9
20260905111602 70 84 8.0 0.0 0.00 0.00 0.00 64 1011.8
20260905110051 70 87 7.0 0.0 0.00 0.00 0.00 64 1011.7
20260905104559 70 63 3.0 0.0 0.00 0.00 0.00 70 1011.6
20260905103045 70 193 3.0 0.0 0.00 0.00 0.00 74 1011.7
20260905101544 70 278 5.0 0.0 0.00 0.00 0.00 68 1011.6
20260905100042 71 288 5.0 0.0 0.00 0.00 0.00 68 1011.5
20260905094541 72 236 3.0 0.0 0.00 0.00 0.00 64 1011.5
20260905093039 73 146 1.0 0.0 0.00 0.00 0.00 66 1011.2
20260905091542 70 233 3.0 0.0 0.00 0.00 0.00 69 1011.2
20260905090031 70 285 1.0 0.0 0.00 0.00 0.00 70 1011.2
20260905084529 69 273 2.0 0.0 0.00 0.00 0.00 73 1011.0
20260905083029 69 252 2.0 0.0 0.00 0.00 0.00 73 1011.0
20260905081524 68 270 1.0 0.0 0.00 0.00 0.00 74 1011.1
20260905080032 67 242 2.0 0.0 0.00 0.00 0.00 75 1011.1
20260905074523 68 273 2.0 0.0 0.00 0.00 0.00 72 1011.0
20260905073018 67 143 0.0 0.0 0.00 0.00 0.00 76 1010.8